Вернуться в каталог

RASSVET-3 27

АктивенPO
NORAD 100093·PAYLOAD·🇷🇺 Russia

Запущен Jul 19, 2026 с Plesetsk Cosmodrome

Loading…

Ближайшие Пролёты (ближайшие 24 часа)

TLE

СвежийSource: Space-Track

Эпоха: Sep 14, 2026, 06:08 UTC

1 A0093U 26165L   26257.25558782 -.00200287  00000-0 -28481-2 0  9992
2 A0093  82.3003 168.1906 0009114 172.1469 187.9930 15.56979772  8896

Отслеживайте RASSVET-3 27 в реальном времени с AllMySat

Download on the App Store